Total_Precipitation_Accumulation
0.00 0.01 0.05 0.12 0.26 0.44 0.51 0.21 0.07 0.03 0.02 0.02 0.03 0.03 0.05 0.09 0.16 0.25 0.09 0.02 0.01 0.00 0.01 0.01 0.01 0.01 0.01 0.02 0.03 0.05 0.06 0.07 0.06 0.06 0.05 0.03 0.01 0.01 0.01 0.01 0.01 0.01 0.02 0.02 0.01 0.01 0.01 0.01 0.01
0.00 0.01 0.04 0.11 0.31 0.84 0.77 0.24 0.07 0.03 0.02 0.02 0.04 0.05 0.03 0.04 0.03 0.03 0.02 0.01 0.00 0.00 0.01 0.01 0.01 0.01 0.01 0.02 0.03 0.05 0.06 0.06 0.06 0.05 0.04 0.03 0.02 0.01 0.01 0.01 0.01 0.02 0.02 0.01 0.01 0.01 0.01 0.01 0.00
0.00 0.00 0.03 0.07 0.24 0.50 0.49 0.19 0.05 0.02 0.03 0.03 0.04 0.03 0.02 0.03 0.03 0.02 0.01 0.00 0.00 0.00 0.00 0.01 0.01 0.01 0.01 0.01 0.02 0.04 0.05 0.05 0.05 0.05 0.04 0.03 0.02 0.02 0.01 0.01 0.02 0.03 0.03 0.02 0.01 0.01 0.01 0.00 0.01
0.00 0.00 0.01 0.02 0.11 0.19 0.15 0.10 0.06 0.03 0.02 0.02 0.02 0.02 0.01 0.01 0.02 0.01 0.00 0.00 0.00 0.01 0.00 0.01 0.02 0.02 0.02 0.01 0.02 0.02 0.03 0.04 0.04 0.04 0.03 0.03 0.03 0.03 0.02 0.02 0.02 0.03 0.03 0.02 0.01 0.01 0.01 0.00 0.00
0.00 0.00 0.00 0.02 0.08 0.14 0.15 0.13 0.07 0.05 0.04 0.06 0.05 0.07 0.07 0.02 0.01 0.01 0.00 0.00 0.00 0.01 0.01 0.01 0.02 0.03 0.02 0.02 0.02 0.02 0.03 0.03 0.04 0.04 0.03 0.03 0.03 0.03 0.03 0.02 0.02 0.03 0.04 0.03 0.02 0.01 0.01 0.01 0.00
0.00 0.00 0.00 0.02 0.06 0.11 0.16 0.13 0.09 0.09 0.09 0.14 0.07 0.08 0.08 0.02 0.01 0.01 0.01 0.00 0.00 0.01 0.01 0.02 0.03 0.03 0.03 0.03 0.04 0.04 0.04 0.04 0.04 0.04 0.04 0.04 0.04 0.03 0.03 0.02 0.02 0.05 0.06 0.04 0.03 0.02 0.02 0.01 0.01
0.00 0.00 0.00 0.01 0.04 0.07 0.09 0.12 0.11 0.12 0.14 0.10 0.05 0.06 0.12 0.07 0.01 0.02 0.02 0.01 0.01 0.01 0.01 0.03 0.04 0.04 0.04 0.05 0.05 0.05 0.05 0.06 0.06 0.05 0.05 0.05 0.05 0.05 0.05 0.04 0.04 0.05 0.07 0.08 0.06 0.04 0.03 0.03 0.03
0.00 0.00 0.00 0.00 0.02 0.05 0.05 0.07 0.09 0.10 0.13 0.09 0.06 0.09 0.28 0.14 0.02 0.02 0.03 0.02 0.02 0.02 0.02 0.03 0.06 0.08 0.08 0.07 0.08 0.08 0.08 0.08 0.07 0.08 0.08 0.08 0.08 0.08 0.09 0.08 0.09 0.09 0.11 0.12 0.12 0.10 0.09 0.10 0.10
0.00 0.00 0.00 0.00 0.01 0.02 0.05 0.08 0.08 0.07 0.09 0.10 0.13 0.16 0.16 0.09 0.03 0.03 0.04 0.04 0.03 0.03 0.03 0.03 0.04 0.07 0.08 0.09 0.09 0.09 0.10 0.11 0.10 0.11 0.11 0.11 0.14 0.24 0.30 0.31 0.33 0.30 0.30 0.28 0.26 0.26 0.26 0.24 0.16
0.00 0.00 0.00 0.00 0.00 0.02 0.04 0.10 0.12 0.08 0.11 0.24 0.40 0.33 0.15 0.10 0.06 0.04 0.04 0.08 0.07 0.05 0.04 0.04 0.05 0.07 0.07 0.07 0.13 0.14 0.16 0.19 0.15 0.21 0.28 0.31 0.38 0.38 0.30 0.49 0.55 0.56 0.64 0.60 0.58 0.75 0.64 0.46 0.36
0.00 0.00 0.00 0.00 0.00 0.02 0.05 0.09 0.09 0.12 0.28 0.55 0.61 0.42 0.20 0.11 0.11 0.07 0.07 0.13 0.10 0.08 0.07 0.07 0.09 0.11 0.12 0.13 0.13 0.16 0.20 0.34 0.30 0.32 0.44 0.60 0.59 0.46 0.36 0.47 0.69 0.86 1.04 1.01 1.12 1.27 0.92 0.87 0.94
0.00 0.00 0.00 0.00 0.01 0.02 0.02 0.04 0.08 0.15 0.41 0.54 0.55 0.46 0.19 0.13 0.10 0.12 0.16 0.19 0.17 0.16 0.17 0.21 0.21 0.24 0.25 0.28 0.30 0.30 0.34 0.47 0.52 0.67 0.72 0.90 0.92 0.80 0.70 0.71 0.81 1.05 1.23 1.56 1.62 1.52 1.42 1.39 1.31
0.00 0.00 0.00 0.00 0.01 0.04 0.02 0.05 0.15 0.22 0.26 0.23 0.19 0.26 0.15 0.11 0.16 0.21 0.25 0.28 0.31 0.34 0.46 0.54 0.51 0.56 0.64 0.71 0.73 0.63 0.67 0.73 0.78 0.96 1.04 1.23 1.41 1.37 1.34 1.25 1.18 1.10 1.28 1.60 1.82 1.77 1.81 1.77 1.66
0.00 0.00 0.00 0.00 0.01 0.02 0.05 0.11 0.21 0.29 0.14 0.10 0.14 0.20 0.22 0.21 0.32 0.43 0.39 0.43 0.49 0.58 0.77 0.92 1.00 1.16 1.19 1.15 1.16 1.13 0.94 0.91 0.92 1.09 1.23 1.45 1.66 1.87 1.94 1.82 1.67 1.40 1.38 1.48 1.81 1.93 2.07 1.96 1.81
0.00 0.01 0.03 0.04 0.04 0.03 0.05 0.23 0.28 0.25 0.15 0.14 0.15 0.15 0.21 0.32 0.41 0.46 0.51 0.58 0.74 0.96 1.15 1.32 1.50 1.69 1.68 1.58 1.47 1.32 1.19 1.18 1.31 1.42 1.43 1.65 1.88 2.06 2.07 1.82 1.52 1.36 1.48 1.56 1.51 1.52 1.81 1.60 1.47
0.00 0.03 0.11 0.11 0.06 0.05 0.09 0.42 0.46 0.29 0.22 0.22 0.26 0.21 0.23 0.29 0.36 0.42 0.55 0.74 1.04 1.30 1.44 1.64 1.78 1.92 1.99 1.95 1.91 1.69 1.52 1.58 1.55 1.49 1.47 1.57 1.77 1.82 1.84 1.48 1.14 1.24 1.46 1.54 1.48 1.42 1.50 1.48 1.53
0.01 0.03 0.09 0.15 0.09 0.06 0.13 0.59 0.58 0.33 0.29 0.27 0.25 0.26 0.29 0.34 0.41 0.49 0.67 1.00 1.39 1.69 1.98 2.22 2.35 2.26 2.29 2.28 2.24 2.08 1.88 1.67 1.49 1.49 1.44 1.35 1.31 1.36 1.44 1.15 1.02 1.18 1.32 1.34 1.30 1.43 1.52 1.40 1.47
0.04 0.05 0.10 0.15 0.10 0.09 0.20 0.48 0.50 0.38 0.35 0.35 0.31 0.28 0.31 0.38 0.51 0.65 0.89 1.26 1.64 2.00 2.45 2.79 2.80 2.59 2.32 2.09 1.83 1.78 1.69 1.60 1.50 1.42 1.31 1.16 1.07 1.09 1.26 1.14 1.03 1.16 1.23 1.18 1.32 1.43 1.51 1.31 1.29
0.04 0.06 0.13 0.17 0.12 0.11 0.25 0.42 0.50 0.46 0.50 0.48 0.47 0.40 0.35 0.45 0.61 0.82 1.11 1.43 1.79 2.16 2.62 2.81 2.76 2.29 1.81 1.62 1.44 1.34 1.22 1.18 1.24 1.24 1.19 1.15 1.05 1.04 1.18 1.09 1.00 0.99 1.00 0.97 1.12 1.24 1.24 1.03 1.23
0.08 0.09 0.16 0.17 0.10 0.10 0.24 0.50 0.63 0.64 0.52 0.47 0.44 0.47 0.43 0.57 0.82 1.16 1.56 1.76 1.72 1.99 2.49 2.53 2.05 1.58 1.30 1.15 1.03 0.92 0.89 0.88 0.87 0.84 0.82 0.81 0.82 0.87 0.95 0.93 0.84 0.79 0.82 0.81 0.89 1.02 1.02 0.90 1.17
0.11 0.12 0.15 0.13 0.11 0.16 0.30 0.60 0.81 0.72 0.47 0.36 0.33 0.34 0.44 0.65 0.94 1.23 1.56 1.66 1.54 1.76 1.79 1.48 1.18 0.92 0.73 0.63 0.59 0.62 0.59 0.58 0.53 0.48 0.47 0.53 0.58 0.59 0.59 0.60 0.64 0.68 0.69 0.71 0.77 0.93 1.05 0.91 0.94
0.07 0.06 0.06 0.05 0.10 0.22 0.34 0.77 1.03 0.84 0.57 0.43 0.36 0.38 0.41 0.45 0.56 0.78 0.98 1.09 1.16 1.17 1.01 0.83 0.72 0.60 0.55 0.55 0.50 0.55 0.50 0.45 0.41 0.35 0.36 0.40 0.42 0.42 0.41 0.43 0.53 0.60 0.66 0.71 0.66 0.71 0.87 0.92 0.84
0.04 0.03 0.04 0.06 0.08 0.16 0.33 0.60 0.90 0.93 0.80 0.61 0.48 0.44 0.35 0.29 0.32 0.43 0.48 0.54 0.61 0.62 0.57 0.48 0.56 0.63 0.58 0.55 0.49 0.45 0.38 0.33 0.29 0.32 0.36 0.41 0.42 0.41 0.38 0.37 0.39 0.49 0.57 0.64 0.66 0.68 0.74 0.81 0.79
0.03 0.04 0.10 0.19 0.25 0.43 0.40 0.47 0.76 0.77 0.74 0.67 0.50 0.36 0.26 0.22 0.26 0.31 0.29 0.26 0.26 0.27 0.27 0.27 0.37 0.47 0.45 0.44 0.42 0.40 0.37 0.35 0.31 0.30 0.31 0.33 0.36 0.38 0.38 0.38 0.40 0.42 0.43 0.47 0.54 0.60 0.65 0.71 0.73
0.04 0.07 0.25 0.52 0.68 0.68 0.40 0.44 0.68 0.61 0.66 0.68 0.45 0.25 0.18 0.17 0.18 0.22 0.22 0.18 0.16 0.15 0.14 0.13 0.18 0.27 0.29 0.31 0.34 0.34 0.34 0.32 0.30 0.26 0.25 0.26 0.26 0.31 0.35 0.37 0.42 0.47 0.48 0.48 0.50 0.56 0.63 0.69 0.75
0.05 0.05 0.12 0.17 0.24 0.31 0.34 0.72 0.75 0.47 0.49 0.40 0.21 0.11 0.09 0.09 0.09 0.11 0.11 0.11 0.09 0.08 0.07 0.06 0.06 0.09 0.10 0.13 0.18 0.19 0.23 0.24 0.25 0.32 0.30 0.25 0.24 0.27 0.34 0.39 0.42 0.45 0.51 0.54 0.61 0.64 0.69 0.75 0.77
0.04 0.03 0.03 0.04 0.06 0.17 0.37 0.64 0.53 0.31 0.32 0.20 0.11 0.05 0.04 0.05 0.05 0.05 0.05 0.05 0.04 0.04 0.04 0.04 0.04 0.05 0.05 0.05 0.08 0.10 0.14 0.18 0.24 0.30 0.29 0.25 0.24 0.23 0.24 0.31 0.42 0.44 0.47 0.55 0.64 0.69 0.73 0.79 0.85
0.04 0.03 0.03 0.03 0.05 0.09 0.25 0.51 0.53 0.38 0.31 0.17 0.08 0.04 0.03 0.03 0.03 0.03 0.03 0.03 0.03 0.02 0.02 0.03 0.03 0.03 0.03 0.03 0.03 0.06 0.11 0.19 0.26 0.30 0.26 0.23 0.21 0.20 0.20 0.24 0.32 0.36 0.39 0.48 0.62 0.69 0.76 0.88 0.96
0.05 0.04 0.04 0.04 0.05 0.06 0.16 0.30 0.25 0.25 0.20 0.11 0.06 0.04 0.01 0.01 0.01 0.01 0.01 0.01 0.01 0.01 0.02 0.02 0.02 0.02 0.02 0.02 0.03 0.07 0.17 0.21 0.27 0.42 0.40 0.25 0.19 0.18 0.17 0.18 0.19 0.21 0.24 0.33 0.50 0.70 0.82 0.93 0.98
0.05 0.05 0.04 0.05 0.05 0.04 0.07 0.16 0.11 0.11 0.09 0.06 0.04 0.02 0.01 0.01 0.00 0.00 0.00 0.01 0.01 0.01 0.01 0.01 0.02 0.02 0.02 0.02 0.02 0.05 0.15 0.20 0.23 0.31 0.34 0.26 0.21 0.18 0.16 0.15 0.14 0.13 0.16 0.25 0.42 0.59 0.75 0.90 1.01